Location: Peebles
(55.6412°N, 3.1714°W)
Time: 09:34:22
(UTC+01:00)

NOSS 3-3 (A) - Pass Details

Date: 02 February 2022
Orbit: 789 x 1423 km, 63.4° (Epoch: 23 April)

Event Time Altitude Azimuth Distance (km) Brightness Sun altitude
Rises 05:15:10 0° 180° (S) 3,369 6.8 -23.8°
Reaches altitude 10° 05:17:54 10° 167° (SSE) 2,501 6.2 -23.4°
Maximum altitude 05:22:30 25° 114° (ESE) 1,779 6.0 -22.8°
Drops below altitude 10° 05:27:38 10° 62° (ENE) 2,810 7.3 -22.1°
Sets 05:30:52 0° 50° (NE) 3,881 7.9 -21.6°
